Location: Newark
(23.3970°S, 47.6010°W)
Time: 01:17:10
(UTC+00:00)

Tiros 1 despin weight - Pass Details

Date: 24 February 2020
Orbit: 593 x 642 km, 48.2° (Epoch: 28 March)

Event Time Altitude Azimuth Distance (km) Brightness Sun altitude
Rises 14:35:17 0° 276° (W) 2,895 ? 71.9°
Reaches altitude 10° 14:38:19 10° 255° (WSW) 2,005 ? 72.4°
Maximum altitude 14:41:19 17° 214° (SW) 1,613 ? 72.8°
Drops below altitude 10° 14:44:21 10° 174° (S) 2,032 ? 73.2°
Sets 14:47:28 0° 153° (SSE) 2,953 ? 73.6°
